Regional Weather Roundup
Issued by NWS

Home | Current Version | Previous Version | Text Only | Print | Product List | Glossary Off
Versions: 1 2 3 4 5 6 7 8 9 10 11 12 13 14 15 16 17 18 19 20 21 22 23 24 25 26 27 28 29 30 31 32 33 34 35 36 37 38 39 40 41 42 43 44 45 46 47 48 49 50

000
ASUS43 KFSD 011502
RWRSD

WEATHER ROUNDUP FOR SOUTH DAKOTA
NATIONAL WEATHER SERVICE SIOUX FALLS SD
1000 AM CDT WED JUL 01 2015

NOTE: "FAIR" INDICATES FEW OR NO CLOUDS BELOW 12,000 FEET WITH NO
SIGNIFICANT WEATHER AND/OR OBSTRUCTIONS TO VISIBILITY.


SDZ001>005-009-010-012>017-011600-
NORTHWEST AND NORTH CENTRAL SOUTH DAKOTA

CITY           SKY/WX    TMP DP  RH WIND       PRES   REMARKS
BUFFALO          N/A     71  62  73 N14       29.93R
FAITH            N/A     64  62  93 N7        29.95R
MOBRIDGE       CLOUDY    72  67  84 E12       29.90R
$$

SDZ012>016-024>037-041>051-057-063-072>074-011600-
SOUTHWEST AND SOUTH CENTRAL SOUTH DAKOTA

CITY           SKY/WX    TMP DP  RH WIND       PRES   REMARKS
RAPID CTY ARPT SUNNY     79  60  52 N21G28    29.99R
PIERRE         MOSUNNY   71  65  81 SE8       29.88R
CUSTER         SUNNY     75  45  34 N6G20     30.14R
PHILIP         PTSUNNY   72  65  78 NE6       29.92R
PINE RIDGE     SUNNY     75  66  73 W7        29.99S
WINNER         PTSUNNY   73  62  68 SE3       29.90R
$$

SDZ004>011-016>023-039-040-011600-
NORTHEAST SOUTH DAKOTA

CITY           SKY/WX    TMP DP  RH WIND       PRES   REMARKS
ABERDEEN       CLOUDY    69  65  86 SE8       29.92F
WATERTOWN      CLOUDY    64  60  87 SE6       29.95R
BROOKINGS      CLOUDY    63  57  82 E12       29.96R
SISSETON         N/A     65  61  87 S10       29.95R
$$

SDZ017-020-022-023-036>040-048>070-011600-
SOUTHEAST SOUTH DAKOTA

CITY           SKY/WX    TMP DP  RH WIND       PRES   REMARKS
SIOUX FALLS    CLOUDY    65  62  90 SE13      29.93S
HURON          PTSUNNY   70  65  84 VRB6      29.90R HAZE
CHAMBERLAIN    MOSUNNY   73  66  78 SE9       29.89S
MITCHELL       CLOUDY    70  66  87 SE9       29.90S FOG
YANKTON        PTSUNNY   70  64  83 SE8       29.89S
$$

ABBREVIATIONS USED IN REMARKS
   TC - TEMPERATURE IN CELSIUS
  WCI - WIND CHILL INDEX
   HX - HEAT INDEX
  VSB - VISIBILITY



USA.gov is the U.S. government's official web portal to all federal, state and local government web resources and services.